"2022-02-05 00:01:00",2795710,4.138667,246.1978,4.562934,0.4849724,5.21,0,3.323334,245.4313,8.111719,0.5564609,4.49,0,-999,0,4.58,75.36,4.618,4.621,4.112,0.493,0,4.428,13.58,5.263,101.6261,3.212,3.212,3.21,100,0,0,0,263.4,145.6,145.6
"2022-02-05 00:02:00",2795711,4.678,247.722,6.458477,0.6024859,5.54,0,3.868667,246.9378,5.051199,0.9273824,5.66,0,-999,0,4.487,76.29,4.481,4.505,4.567,0.543,0,4.451,13.57,5.325,101.6431,3.212,3.212,3.212,100,0,0,0,263.4,145.6,145.6
"2022-02-05 00:03:00",2795712,5.766667,250.8571,7.709899,0.6719193,6.88,0,3.808,250.9317,4.022352,0.5567909,4.76,0,-999,0,4.5,76.39,4.537,4.523,5.758,0.413,0,4.453,13.57,6.638,101.6466,3.214,3.214,3.212,100,0,0,0,263.4,145.6,145.6
"2022-02-05 00:04:00",2795713,5.711333,250.208,7.931836,0.5380194,6.49,0,3.773334,244.6428,11.03603,0.9156977,5.52,0,-999,0,4.5,75.93,4.59,4.552,5.458,0.48,0,4.471,13.58,6.45,101.6413,3.216,3.216,3.214,100,0,0,0,263.4,145.6,145.6
"2022-02-05 00:05:00",2795714,5.68,252.5323,5.723168,0.7849672,6.78,0,4.277334,250.278,6.772825,0.6559214,5.49,0,-999,0,4.5,75.61,4.623,4.586,5.442,0.712,0,4.471,13.57,6.7,101.6501,3.216,3.216,3.216,100,0,0,0,263.4,145.6,145.6
"2022-02-05 00:06:00",2795715,5.311334,250.5862,8.123814,0.8747408,7.02,0,3.986667,246.6633,6.476423,0.5832857,4.56,0,-999,0,4.5,75.92,4.601,4.562,5.004,0.465,0,4.472,13.57,6.138,101.6454,3.217,3.217,3.216,100,0,0,0,263.4,145.6,145.6
"2022-02-05 00:07:00",2795716,5.399333,249.4684,6.182078,0.6921991,6.79,0,4.094667,248.5702,8.022879,0.8153597,6.05,0,-999,0,4.5,75.85,4.629,4.599,5.7,0.53,0,4.493,13.58,6.7,101.6487,3.218,3.218,3.217,100,0,0,0,263.4,145.6,145.6
"2022-02-05 00:08:00",2795717,5.805333,251.3293,8.817553,0.7321645,7.07,0,3.933333,250.3316,7.093204,0.5537949,4.97,0,-999,0,4.593,75.25,4.681,4.646,5.292,0.697,0,4.495,13.57,6.575,101.657,3.219,3.22,3.218,100,0,0,0,263.4,145.6,145.6
"2022-02-05 00:09:00",2795718,5.766,251.7996,4.678452,0.5333142,6.71,0,4.571334,253.3261,9.098433,0.8066131,5.78,0,-999,0,4.587,75.64,4.669,4.64,5.175,0.856,0,4.511,13.58,6.2,101.6456,3.22,3.22,3.219,100,0,0,0,263.4,145.6,145.6
"2022-02-05 00:10:00",2795719,4.42,254.1396,6.464989,0.4445372,5.5,0,3.963334,243.7288,7.269196,0.5246036,4.77,0,-999,0,4.6,75.11,4.695,4.679,4.304,0.484,0,4.514,13.58,5.2,101.6609,3.22,3.22,3.22,100,0,0,0,263.4,145.6,145.6
"2022-02-05 00:11:00",2795720,4.565334,251.5331,8.923746,0.6907278,5.48,0,3.670666,245.6061,7.157116,0.7106661,5.06,0,-999,0,4.607,74.44,4.75,4.706,4.754,0.496,0,4.53,13.58,5.388,101.6556,3.221,3.221,3.22,100,0,0,0,263.4,145.6,145.6
"2022-02-05 00:12:00",2795721,5.433333,255.2007,4.79033,0.2817958,6.01,0,3.414,253.1965,5.966886,0.5233839,4.34,0,-999,0,4.647,74.43,4.716,4.699,5.1,0.58,0,4.536,13.57,5.888,101.6539,3.223,3.223,3.221,100,0,0,0,263.4,145.6,145.6
"2022-02-05 00:13:00",2795722,4.508667,252.064,5.833462,0.4818556,5.62,0,3.428,250.6581,6.742494,0.4610162,4.49,0,-999,0,4.593,75.43,4.592,4.606,4.704,0.531,0,4.551,13.57,5.388,101.6562,3.223,3.223,3.221,100,0,0,0,263.4,145.6,145.6
"2022-02-05 00:14:00",2795723,4.801333,250.4005,6.609924,0.5657546,5.76,0,3.928666,249.2032,7.191812,0.4436646,5.23,0,-999,0,4.5,75.75,4.54,4.54,5.162,0.42,0,4.557,13.57,5.825,101.6604,3.223,3.223,3.223,100,0,0,0,263.4,145.6,145.6
"2022-02-05 00:15:00",2795724,5.078001,254.1454,5.392771,0.5294551,5.92,0,3.158,250.5321,7.371276,0.5613459,4.39,0,-999,0,4.5,74.87,4.597,4.572,4.129,0.567,0,4.557,13.56,5.013,101.663,3.225,3.225,3.223,100,0,0,0,263.4,145.6,145.6
"2022-02-05 00:16:00",2795725,4.127333,251.9337,7.350292,0.4145273,4.89,0,3.030667,248.2157,10.66622,0.6046316,4.21,0,-999,0,4.5,75.11,4.542,4.545,4.429,0.641,0,4.557,13.58,5.575,101.661,3.227,3.227,3.225,100,0,0,0,263.4,145.6,145.6
"2022-02-05 00:17:00",2795726,4.588666,251.2057,5.20093,0.6879424,6.16,0,3.53,249.434,12.90892,0.4075619,4.34,0,-999,0,4.5,75.6,4.531,4.524,4.496,0.513,0,4.557,13.57,5.388,101.6519,3.227,3.227,3.227,100,0,0,0,263.4,145.6,145.6
"2022-02-05 00:18:00",2795727,4.818,253.3386,5.788316,0.9665622,6.39,0,3.894,250.2023,4.732963,0.4598376,4.6,0,-999,0,4.5,74.85,4.626,4.59,4.596,0.686,0,4.57,13.57,5.95,101.6667,3.227,3.227,3.227,100,0,0,0,263.4,145.6,145.6
"2022-02-05 00:19:00",2795728,5.657333,250.2011,4.228567,0.5133091,6.84,0,3.641334,248.1315,5.5096,0.481288,4.54,0,-999,0,4.5,74.99,4.579,4.554,5.242,0.362,0,4.579,13.56,5.825,101.671,3.229,3.229,3.227,100,0,0,0,263.4,145.6,145.6
"2022-02-05 00:20:00",2795729,4.528,248.1276,5.312879,0.5189631,5.31,0,3.134666,245.1395,6.864355,0.4516911,4.19,0,-999,0,4.433,75.43,4.465,4.472,4.329,0.389,0,4.579,13.57,4.888,101.6589,3.231,3.231,3.229,100,0,0,0,263.4,145.6,145.6
"2022-02-05 00:21:00",2795730,4.296,243.7932,6.184089,0.2941156,4.75,0,3.046667,242.9419,6.207999,0.3485526,4.01,0,-999,0,4.38,76.16,4.371,4.399,4.712,0.692,0,4.579,13.57,6.2,101.6719,3.233,3.233,3.231,100,0,0,0,263.4,145.6,145.6
"2022-02-05 00:22:00",2795731,5.057334,250.6692,6.636426,0.531005,5.98,0,3.642,248.543,6.940483,0.438394,4.52,0,-999,0,4.38,76.21,4.448,4.437,5.171,0.479,0,4.579,13.57,6.013,101.6701,3.233,3.233,3.233,100,0,0,0,263.4,145.6,145.6
"2022-02-05 00:23:00",2795732,5.612,244.3291,5.694716,0.6218595,6.89,0,3.64,247.6038,6.299049,0.5405552,4.59,0,-999,0,4.4,75.67,4.509,4.494,5.521,0.369,0,4.585,13.57,6.263,101.6572,3.235,3.235,3.233,100,0,0,0,263.4,145.6,145.6
"2022-02-05 00:24:00",2795733,4.731333,244.513,7.153878,0.8409111,6.64,0,3.710667,242.5307,6.028593,0.5318831,4.56,0,-999,0,4.44,75.81,4.532,4.519,4.287,0.199,0,4.6,13.56,4.825,101.6773,3.235,3.235,3.235,100,0,0,0,263.4,145.6,145.6
"2022-02-05 00:25:00",2795734,4.282667,246.6681,4.043242,0.5802697,5.81,0,3.233333,239.9333,3.1079,0.4059502,3.78,0,-999,0,4.4,75.99,4.45,4.463,4.133,0.501,0,4.6,13.57,5.263,101.6765,3.237,3.237,3.235,100,0,0,0,263.4,145.6,145.6
"2022-02-05 00:26:00",2795735,5.050667,247.3277,8.65843,0.6698802,5.99,0,3.247334,245.3416,9.303642,0.5924015,4.65,0,-999,0,4.4,76.23,4.432,4.451,5.046,0.554,0,4.6,13.57,6.013,101.6643,3.237,3.237,3.237,100,0,0,0,263.4,145.6,145.6
"2022-02-05 00:27:00",2795736,5.14,250.271,3.920981,0.7523297,6.42,0,3.765334,250.272,7.339985,0.6909886,4.81,0,-999,0,4.4,76.06,4.529,4.508,5.133,0.714,0,4.6,13.56,6.013,101.6876,3.239,3.239,3.237,100,0,0,0,263.4,145.6,145.6
"2022-02-05 00:28:00",2795737,4.45,249.1103,8.756069,0.5987097,5.48,0,3.72,241.8625,5.686161,0.4996666,4.75,0,-999,0,4.4,75.71,4.528,4.495,4.654,0.765,0,4.6,13.58,5.888,101.6776,3.239,3.239,3.239,100,0,0,0,263.4,145.6,145.6
"2022-02-05 00:29:00",2795738,5.465333,252.334,3.43816,0.6831286,6.62,0,4.103333,253.8702,5.654965,0.6552523,5.05,0,-999,0,4.4,75.59,4.529,4.506,5.592,0.447,0,4.6,13.57,6.263,101.6673,3.242,3.242,3.239,100,0,0,0,263.4,145.6,145.6
"2022-02-05 00:30:00",2795739,4.867333,250.1489,5.899467,0.570175,5.91,0,3.558,250.088,6.95505,0.4450947,4.62,0,-999,0,4.4,75.47,4.481,4.475,4.712,0.464,0,4.6,13.57,5.45,101.6754,3.242,3.242,3.242,100,0,0,0,263.4,145.6,145.6
"2022-02-05 00:31:00",2795740,3.998,252.0745,5.35607,0.5852315,5.29,0,3.712,251.1199,9.607993,0.7990094,4.5,0,-999,0,4.4,75.34,4.493,4.477,4.55,0.569,0,4.6,13.58,5.45,101.6847,3.244,3.244,3.242,100,0,0,0,263.4,145.6,145.6
"2022-02-05 00:32:00",2795741,4.402666,250.8006,3.207814,0.477095,5.3,0,3.184,254.0682,5.345802,0.4716467,4.16,0,-999,0,4.4,75.38,4.446,4.441,4.054,0.328,0,4.6,13.57,4.763,101.6785,3.244,3.244,3.244,100,0,0,0,263.4,145.6,145.6
"2022-02-05 00:33:00",2795742,4.522,253.4552,9.131348,0.6102152,5.53,0,2.938667,248.1133,6.809328,0.3801731,3.7,0,-999,0,4.327,75.71,4.368,4.391,4.379,0.423,0,4.6,13.58,4.888,101.6678,3.246,3.246,3.244,100,0,0,0,263.4,145.6,145.6
"2022-02-05 00:34:00",2795743,4.176667,248.1369,5.323192,0.4342299,4.93,0,2.764,246.3336,6.69733,0.5929115,3.92,0,-999,0,4.3,75.59,4.359,4.381,4.254,0.571,0,4.6,13.58,5.388,101.678,3.246,3.246,3.246,100,0,0,0,263.4,145.6,145.6
"2022-02-05 00:35:00",2795744,4.473333,253.4014,7.724798,0.3949965,5.27,0,3.525333,252.4645,5.96037,0.6205466,4.21,0,-999,0,4.3,75.84,4.365,4.378,4.354,0.258,0,4.6,13.57,5.138,101.6776,3.248,3.248,3.246,100,0,0,0,263.4,145.6,145.6
"2022-02-05 00:36:00",2795745,5.003333,246.5319,6.308947,0.631112,5.9,0,3.774,243.9928,8.492273,1.031981,5.22,0,-999,0,4.3,75.72,4.374,4.382,4.975,0.951,0,4.6,13.58,6.075,101.6653,3.25,3.25,3.248,100,0,0,0,263.4,145.6,145.6
"2022-02-05 00:37:00",2795746,5.138667,252.007,7.454308,0.4092573,5.7,0,4.238,247.4617,7.124354,0.4752011,4.91,0,-999,0,4.42,74.73,4.596,4.525,5.125,0.446,0,4.6,13.58,5.7,101.6767,3.25,3.25,3.25,100,0,0,0,263.4,145.6,145.6
"2022-02-05 00:38:00",2795747,4.494667,249.5406,5.519979,0.2996635,5.01,0,3.099334,248.2527,7.753735,0.5301128,4.1,0,-999,0,4.447,74.55,4.541,4.519,4.379,0.285,0,4.596,13.57,5.138,101.6864,3.25,3.252,3.25,100,0,0,0,263.4,145.6,145.6
"2022-02-05 00:39:00",2795748,3.658,248.2674,3.640554,0.3226598,4.27,0,2.89,242.9359,5.542686,0.3623626,3.61,0,-999,0,4.353,75.38,4.399,4.413,3.517,0.202,0,4.583,13.57,4.075,101.6647,3.252,3.252,3.252,100,0,0,0,263.4,145.6,145.6
"2022-02-05 00:40:00",2795749,4.08,255.7358,6.01101,0.8249525,5.23,0,2.956,253.7209,6.445602,0.5084329,3.98,0,-999,0,4.3,75.49,4.39,4.4,4.592,0.568,0,4.579,13.58,5.575,101.6642,3.252,3.252,3.252,100,0,0,0,263.4,145.6,145.6
"2022-02-05 00:41:00",2795750,4.386,243.6599,7.598454,0.3281626,4.85,0,2.954667,240.0611,6.102568,0.2570828,3.49,0,-999,0,4.313,75.53,4.381,4.396,4.392,0.389,0,4.579,13.57,5.013,101.6816,3.254,3.254,3.252,100,0,0,0,263.4,145.6,145.6
"2022-02-05 00:42:00",2795751,4.565333,260.388,6.716712,0.5942824,5.73,0,3.370667,254.1552,9.494404,0.5253756,4.19,0,-999,0,4.3,75.51,4.41,4.404,4.512,0.473,0,4.579,13.58,5.325,101.6862,3.256,3.256,3.254,100,0,0,0,263.4,145.6,145.6
"2022-02-05 00:43:00",2795752,5.48,254.2,7.104639,0.8990735,7,0,3.877334,256.1292,6.287299,0.4075204,4.56,0,-999,0,4.387,75.74,4.478,4.455,5.446,0.83,0,4.57,13.56,6.888,101.6631,3.256,3.256,3.254,100,0,0,0,263.4,145.6,145.6
"2022-02-05 00:44:00",2795753,4.854666,250.8672,5.462396,0.7500122,5.97,0,3.948666,250.2029,6.481119,0.4234597,4.75,0,-999,0,4.4,75.86,4.521,4.478,4.583,0.388,0,4.558,13.58,5.513,101.6778,3.256,3.256,3.255,100,0,0,0,263.4,145.6,145.6
"2022-02-05 00:45:00",2795754,5.578,249.3412,6.703055,0.8819841,6.72,0,3.934666,249.7305,6.62562,0.5187917,4.74,0,-999,0,4.4,75.85,4.522,4.503,5.304,0.46,0,4.558,13.58,5.888,101.6813,3.256,3.256,3.256,100,0,0,0,263.4,145.6,145.6
"2022-02-05 00:46:00",2795755,5.886666,251.5373,4.7705,0.4063932,6.49,0,3.523333,254.0699,7.360435,0.5777043,4.62,0,-999,0,4.467,75.37,4.6,4.558,5.708,0.404,0,4.56,13.58,6.325,101.6829,3.256,3.256,3.256,100,0,0,0,263.4,145.6,145.6
"2022-02-05 00:47:00",2795756,5.305334,252.6737,5.8015,0.3760473,5.91,0,3.714666,251.6111,6.347843,0.6037424,4.85,0,-999,0,4.5,75.27,4.599,4.562,5.079,0.447,0,4.578,13.57,5.7,101.6684,3.256,3.256,3.256,100,0,0,0,263.4,145.6,145.6
"2022-02-05 00:48:00",2795757,4.564667,248.4715,6.728873,0.5379202,5.74,0,2.802667,246.2007,5.279716,0.5098165,3.68,0,-999,0,4.46,75.44,4.502,4.5,4.192,0.442,0,4.579,13.57,5.325,101.6854,3.256,3.256,3.256,100,0,0,0,263.4,145.6,145.6
"2022-02-05 00:49:00",2795758,5.322,254.8065,4.772067,0.8635678,6.98,0,2.818667,253.0022,5.136511,0.496103,3.81,0,-999,0,4.367,75.66,4.373,4.4,4.3,0.487,0,4.579,13.58,5.075,101.6916,3.256,3.256,3.256,100,0,0,0,263.4,145.6,145.6
"2022-02-05 00:50:00",2795759,5.385334,248.4845,6.569886,0.8767886,6.51,0,3.456,246.9067,10.66415,0.9660145,4.77,0,-999,0,4.26,76.1,4.24,4.288,5.633,0.612,0,4.579,13.58,6.575,101.6742,3.256,3.256,3.256,100,0,0,0,263.4,145.6,145.6
"2022-02-05 00:51:00",2795760,5.154,242.4717,8.751231,0.8259605,7.13,0,4.204667,237.2617,7.595856,0.9782423,5.97,0,-999,0,4.26,75.4,4.363,4.329,4.979,0.478,0,4.566,13.58,5.888,101.6721,3.256,3.256,3.256,100,0,0,0,263.4,145.6,145.6
"2022-02-05 00:52:00",2795761,4.958667,251.533,4.786017,0.6810959,5.92,0,3.803334,244.9349,4.890679,0.6836341,5.19,0,-999,0,4.3,74.72,4.4,4.398,5.15,0.425,0,4.557,13.57,5.888,101.6898,3.257,3.259,3.256,100,0,0,0,263.4,145.6,145.6
"2022-02-05 00:53:00",2795762,5.674,251.6001,3.944793,0.6823763,6.9,0,4.632667,251.7399,7.780182,0.9821979,6.28,0,-999,0,4.3,75.52,4.362,4.358,5.725,0.905,0,4.557,13.57,7.513,101.6853,3.259,3.259,3.259,100,0,0,0,263.4,145.6,145.6
"2022-02-05 00:54:00",2795763,5.128667,253.0719,4.982225,0.6352308,6.29,0,4.364667,251.7343,6.35689,1.01356,6.04,0,-999,0,4.3,75.71,4.399,4.371,5.571,0.469,0,4.557,13.58,6.325,101.6727,3.259,3.259,3.259,100,0,0,0,263.4,145.6,145.6
"2022-02-05 00:55:00",2795764,4.533999,252.1363,7.480073,0.5772324,5.46,0,4.174666,250.4067,8.482318,0.6581982,5.52,0,-999,0,4.3,75.15,4.387,4.402,4.692,0.496,0,4.557,13.56,5.7,101.6782,3.261,3.261,3.259,100,0,0,0,263.4,145.6,145.6
"2022-02-05 00:56:00",2795765,5.345334,256.4698,4.512033,0.9868189,6.95,0,4.229333,257.8071,5.9066,0.6538447,5.45,0,-999,0,4.3,75.45,4.355,4.362,5.667,0.709,0,4.543,13.57,7.075,101.6902,3.261,3.261,3.26,100,0,0,0,263.4,145.6,145.6
"2022-02-05 00:57:00",2795766,5.026667,251.5336,8.24262,0.5098975,5.9,0,4.217333,250.807,7.859609,0.4372104,5.1,0,-999,0,4.28,75.66,4.337,4.333,5.15,0.547,0,4.536,13.58,6.325,101.687,3.262,3.263,3.261,100,0,0,0,263.4,145.6,145.6
"2022-02-05 00:58:00",2795767,4.745333,253.5334,4.095506,0.5872406,5.99,0,3.744667,253.2038,5.918409,0.4589244,4.55,0,-999,0,4.2,75.67,4.217,4.237,4.792,0.562,0,4.521,13.57,5.95,101.67,3.263,3.263,3.262,100,0,0,0,263.4,145.6,145.6
"2022-02-05 00:59:00",2795768,5.58,256.1967,5.646035,0.5312626,6.47,0,3.532,250.7152,8.208392,0.4168644,4.49,0,-999,0,4.113,76.13,4.116,4.139,5.083,0.498,0,4.514,13.57,6.325,101.6895,3.263,3.263,3.263,100,0,0,0,263.4,145.6,145.6
"2022-02-05 01:00:00",2795769,5.587334,256.1318,6.20189,0.9036627,7.34,0,3.568,256.3995,4.422459,0.817934,4.57,0,-999,0,4.1,76.19,4.193,4.174,4.987,0.58,0,4.507,13.58,6.013,101.6847,3.264,3.264,3.263,100,0,0,0,263.4,145.6,145.6
"2022-02-05 01:01:00",2795770,5.466667,257.7337,6.512564,0.6198996,6.64,0,3.839333,253.9993,5.303382,0.7922833,5.24,0,-999,0,4.1,76.47,4.163,4.15,4.808,0.413,0,4.493,13.57,5.575,101.6786,3.265,3.265,3.263,100,0,0,0,263.4,145.6,145.6
"2022-02-05 01:02:00",2795771,5.028,255.2197,8.948845,0.8970113,6.78,0,3.517334,251.4883,10.20865,0.6772146,4.41,0,-999,0,4.1,76.18,4.196,4.169,4.967,0.61,0,4.483,13.58,5.763,101.6956,3.265,3.265,3.265,100,0,0,0,263.4,145.6,145.6
"2022-02-05 01:03:00",2795772,4.642,252.7949,6.42711,0.5352283,5.74,0,3.429333,254.6029,7.212037,0.3703056,4,0,-999,0,4.1,76.28,4.203,4.169,4.942,0.391,0,4.471,13.57,5.825,101.699,3.266,3.266,3.265,100,0,0,0,263.4,145.6,145.6
"2022-02-05 01:04:00",2795773,5.139333,248.0555,8.437914,0.6389833,6.07,0,3.920667,249.3425,8.126932,0.8140637,5.62,0,-999,0,4.1,76.41,4.175,4.147,5.296,0.757,0,4.471,13.58,6.45,101.6752,3.266,3.266,3.265,100,0,0,0,263.4,145.6,145.6
"2022-02-05 01:05:00",2795774,5.410001,253.591,5.800786,0.5337914,6.25,0,3.746667,249.527,7.208603,0.4705411,4.63,0,-999,0,4.107,75.93,4.253,4.246,5.325,0.287,0,4.455,13.58,5.763,101.6995,3.266,3.266,3.265,100,0,0,0,263.4,145.6,145.6
"2022-02-05 01:06:00",2795775,4.772666,255.3997,4.126487,0.8295175,6.83,0,3.114667,250.7549,8.639695,0.6520211,4.07,0,-999,0,4.12,76.14,4.252,4.251,4.258,0.596,0,4.451,13.58,5.45,101.6994,3.266,3.266,3.266,100,0,0,0,263.4,145.6,145.6
"2022-02-05 01:07:00",2795776,4.944666,252.7285,7.669727,0.8856398,6.59,0,3.34,249.2156,10.61565,0.8020806,4.82,0,-999,0,4.1,76.52,4.233,4.215,4.792,0.964,0,4.431,13.57,6.325,101.6894,3.267,3.267,3.266,100,0,0,0,263.4,145.6,145.6
"2022-02-05 01:08:00",2795777,4.224,256.4629,4.643164,0.4743669,5.15,0,3.333333,259.2668,2.743715,0.8322151,5.04,0,-999,0,4.127,76.27,4.247,4.236,4.142,0.196,0,4.428,13.57,4.388,101.6998,3.267,3.267,3.266,100,0,0,0,263.4,145.6,145.6
"2022-02-05 01:09:00",2795778,5.234666,251.593,6.424698,0.6091728,6.1,0,3.083333,254.3358,8.688267,0.4205024,3.7,0,-999,0,4.1,76.65,4.133,4.153,4.929,0.656,0,4.418,13.57,5.825,101.7048,3.267,3.267,3.267,100,0,0,0,263.4,145.6,145.6
"2022-02-05 01:10:00",2795779,5.334,255.8667,3.53697,0.4349374,5.98,0,3.533333,255.068,7.471654,0.7559425,4.76,0,-999,0,4.06,76.41,4.122,4.119,4.875,0.358,0,4.408,13.58,5.575,101.6974,3.267,3.267,3.267,100,0,0,0,263.4,145.6,145.6
"2022-02-05 01:11:00",2795780,4.730667,256.2766,6.952104,0.7149495,6.06,0,3.537334,254.0584,13.53095,0.6195855,4.56,0,-999,0,4.08,76.29,4.14,4.123,4.792,0.373,0,4.385,13.57,5.7,101.7071,3.267,3.267,3.267,100,0,0,0,263.4,145.6,145.6
"2022-02-05 01:12:00",2795781,4.526,259.1246,5.861217,0.3403096,5.56,0,3.316,254.1419,7.843122,0.6574172,4.74,0,-999,0,4,76.31,4.1,4.103,4.467,0.375,0,4.385,13.58,5.075,101.7015,3.267,3.267,3.267,100,0,0,0,263.4,145.6,145.6
"2022-02-05 01:13:00",2795782,4.797333,257.4085,4.765509,0.7486385,6.51,0,3.470667,258.2618,4.665173,0.2701473,4.25,0,-999,0,4,76.21,4.115,4.112,4.625,0.24,0,4.373,13.57,5.2,101.7085,3.267,3.267,3.267,100,0,0,0,263.4,145.6,145.6
"2022-02-05 01:14:00",2795783,4.587334,253.4671,5.583789,0.6223554,5.78,0,2.982666,253.0666,6.562031,0.290986,3.56,0,-999,0,3.973,76.64,4.03,4.045,4.2,0.664,0,4.365,13.58,5.138,101.6988,3.267,3.267,3.267,100,0,0,0,263.4,145.6,145.6
"2022-02-05 01:15:00",2795784,4.048667,251.1996,5.598856,0.8305891,5.09,0,2.882,251.3295,5.924238,0.3836178,3.68,0,-999,0,3.9,77.07,3.914,3.951,4.342,0.422,0,4.347,13.57,4.888,101.7094,3.267,3.267,3.267,100,0,0,0,263.4,145.6,145.6
"2022-02-05 01:16:00",2795785,4.306667,253.9978,6.108741,0.842921,6.09,0,3.510666,253.1886,9.417566,0.4837143,4.6,0,-999,0,3.9,76.92,3.992,3.976,4.787,0.726,0,4.342,13.58,6.263,101.7165,3.267,3.267,3.267,100,0,0,0,263.4,145.6,145.6
"2022-02-05 01:17:00",2795786,4.570666,255.9297,4.579877,0.5147876,5.48,0,3.388667,255.7323,5.077081,0.563866,4.51,0,-999,0,3.9,76.75,4.004,3.988,4.283,0.332,0,4.324,13.58,4.888,101.6988,3.267,3.267,3.267,100,0,0,0,263.4,145.6,145.6
"2022-02-05 01:18:00",2795787,4.98,251.2394,6.831802,0.7150012,6.29,0,3.627334,256.3369,7.90868,0.8923113,5.08,0,-999,0,3.833,76.96,3.902,3.906,5.167,0.758,0,4.314,13.57,6.638,101.712,3.267,3.267,3.267,100,0,0,0,263.4,145.6,145.6
"2022-02-05 01:19:00",2795788,5.442,249.532,5.77155,0.3497657,6.03,0,4.064666,251.672,8.2154,0.8127391,5.57,0,-999,0,3.907,76.83,4.101,4.031,5.317,0.481,0,4.299,13.58,6.138,101.7198,3.267,3.267,3.267,100,0,0,0,263.4,145.6,145.6
"2022-02-05 01:20:00",2795789,5.31,250.3223,7.653882,0.8165292,6.63,0,3.856,248.1512,9.701733,0.3611242,4.67,0,-999,0,3.947,76.49,4.108,4.071,4.862,0.745,0,4.298,13.58,6.513,101.7094,3.267,3.267,3.267,100,0,0,0,263.4,145.6,145.6
"2022-02-05 01:21:00",2795790,4.81,248.7373,4.874927,0.5579486,5.57,0,3.224666,246.211,9.977634,0.4477777,3.86,0,-999,0,3.973,76.29,4.094,4.07,5.317,0.547,0,4.28,13.57,6.013,101.7303,3.267,3.267,3.267,100,0,0,0,263.4,145.6,145.6
"2022-02-05 01:22:00",2795791,4.839334,244.8008,4.927087,0.7422532,6.03,0,2.958667,244.0441,8.753998,0.5840191,4.35,0,-999,0,3.92,76.49,4.001,4.02,4.579,0.591,0,4.271,13.59,5.7,101.7211,3.267,3.267,3.267,100,0,0,0,263.4,145.5,145.6
"2022-02-05 01:23:00",2795792,4.124,247.9321,5.515872,0.4115791,4.73,0,3.071333,245.3324,6.617828,0.3897497,3.83,0,-999,0,3.813,77.04,3.868,3.911,4.075,0.424,0,4.256,13.57,4.7,101.7228,3.267,3.267,3.267,100,0,0,0,263.4,145.6,145.6
"2022-02-05 01:24:00",2795793,4.604001,250.5311,6.212147,0.4583273,5.43,0,2.787333,249.5212,7.901032,0.4951293,3.87,0,-999,0,3.8,77.49,3.809,3.838,4.446,0.473,0,4.253,13.58,5.388,101.7319,3.267,3.267,3.266,100,0,0,0,263.4,145.5,145.6
"2022-02-05 01:25:00",2795794,4.836,243.3462,7.041049,0.8593005,6.68,0,3.206667,240.1325,5.782027,0.6752548,4.55,0,-999,0,3.7,77.69,3.768,3.8,4.512,0.42,0,4.236,13.57,5.263,101.724,3.266,3.267,3.266,100,0,0,0,263.4,145.5,145.6
"2022-02-05 01:26:00",2795795,4.299333,245.6707,4.782441,0.4433579,5.21,0,2.860667,245.0196,6.944971,0.4743903,3.6,0,-999,0,3.727,77.51,3.834,3.856,4.354,0.372,0,4.225,13.58,5.013,101.7202,3.266,3.266,3.266,100,0,0,0,263.4,145.6,145.6
"2022-02-05 01:27:00",2795796,4.452667,241.6029,4.109509,0.4055196,5.43,0,3.5,237.799,4.940486,0.4879893,4.36,0,-999,0,3.7,77.9,3.791,3.829,4.533,0.402,0,4.213,13.57,5.45,101.7323,3.265,3.266,3.265,100,0,0,0,263.4,145.6,145.6
"2022-02-05 01:28:00",2795797,4.422,242.1297,4.377663,0.4928313,5.55,0,3.068,238.2628,5.192141,0.4199713,3.9,0,-999,0,3.647,78.22,3.699,3.755,4.475,0.225,0,4.212,13.58,4.888,101.7275,3.265,3.265,3.265,100,0,0,0,263.4,145.5,145.5
"2022-02-05 01:29:00",2795798,4.611333,242.9331,4.835792,0.4010464,5.43,0,3.771334,238.0613,4.751561,0.4024237,4.57,0,-999,0,3.6,78.42,3.703,3.742,4.483,0.339,0,4.198,13.57,5.2,101.7275,3.265,3.265,3.265,100,0,0,0,263.4,145.5,145.5
"2022-02-05 01:30:00",2795799,4.412667,242.9269,5.356989,0.4044332,5.1,0,3.784667,241.3307,6.854492,0.4048023,4.55,0,-999,0,3.6,78.74,3.685,3.719,4.5,0.348,0,4.19,13.57,4.95,101.741,3.265,3.265,3.265,100,0,0,0,263.4,145.6,145.5
"2022-02-05 01:31:00",2795800,4.757333,244.8607,5.47279,0.3589702,5.38,0,3.09,243.134,5.941991,0.4690273,4.17,0,-999,0,3.687,78.68,3.825,3.832,4.875,0.41,0,4.17,13.58,5.513,101.7262,3.264,3.265,3.264,100,0,0,0,263.4,145.5,145.5
"2022-02-05 01:32:00",2795801,5.036,242.8657,4.12851,0.7657658,6.28,0,3.294667,241.4628,6.063462,0.4547214,4.05,0,-999,0,3.7,79.08,3.8,3.819,4.825,0.596,0,4.169,13.57,5.763,101.7232,3.264,3.265,3.263,100,0,0,0,263.4,145.5,145.5
"2022-02-05 01:33:00",2795802,5.092667,245.5999,4.238751,0.5385594,6.48,0,3.429333,244.191,6.857753,0.5118003,4.36,0,-999,0,3.667,79.28,3.766,3.777,4.862,0.291,0,4.151,13.58,5.388,101.7356,3.263,3.264,3.263,100,0,0,0,263.4,145.5,145.5
"2022-02-05 01:34:00",2795803,4.329333,244.0677,4.056866,0.4721648,4.97,0,2.994,242.1995,6.526657,0.5203562,3.87,0,-999,0,3.68,79.13,3.771,3.775,4.408,0.38,0,4.15,13.57,5.138,101.7315,3.263,3.263,3.263,100,0,0,0,263.4,145.5,145.5
"2022-02-05 01:35:00",2795804,4.090667,243.2006,5.217257,0.3783731,4.82,0,3.240666,243.3402,7.487306,0.7778814,4.79,0,-999,0,3.66,78.9,3.762,3.779,3.983,0.386,0,4.133,13.58,4.638,101.7295,3.262,3.263,3.262,100,0,0,0,263.4,145.5,145.5
"2022-02-05 01:36:00",2795805,4.387334,244.8028,4.32233,0.4153948,5.15,0,2.9,241.8616,6.125067,0.4003665,3.58,0,-999,0,3.607,78.9,3.736,3.76,4.408,0.432,0,4.127,13.58,5.263,101.7385,3.261,3.263,3.261,100,0,0,0,263.4,145.5,145.5
"2022-02-05 01:37:00",2795806,4.755333,245.997,5.629903,0.4443253,5.72,0,3.327334,247.1403,10.01304,0.5033814,4.4,0,-999,0,3.6,78.91,3.702,3.722,4.646,0.589,0,4.127,13.57,5.45,101.7313,3.261,3.261,3.261,100,0,0,0,263.4,145.5,145.5
"2022-02-05 01:38:00",2795807,4.608,242.1349,4.0463,0.6111432,5.65,0,3.174,242.5499,7.56378,0.4584874,3.94,0,-999,0,3.6,79.06,3.738,3.738,4.608,0.54,0,4.122,13.58,5.263,101.7327,3.259,3.261,3.259,100,0,0,0,263.4,145.5,145.5
"2022-02-05 01:39:00",2795808,4.48,246.9336,3.837607,0.9065391,6.23,0,2.67,246.3189,8.107285,0.4040132,3.66,0,-999,0,3.6,79.17,3.722,3.733,4.617,0.881,0,4.107,13.58,6.013,101.7465,3.259,3.259,3.259,100,0,0,0,263.4,145.5,145.5
"2022-02-05 01:40:00",2795809,4.396667,244.3281,5.90321,0.6027899,5.6,0,3.180667,241.5303,7.453285,0.5179378,4.33,0,-999,0,3.56,79.55,3.608,3.646,4.258,0.286,0,4.097,13.58,4.95,101.737,3.259,3.259,3.259,100,0,0,0,263.4,145.5,145.5
"2022-02-05 01:41:00",2795810,4.424,245.2018,4.577279,0.5434065,5.37,0,3.532666,246.1409,8.127935,0.9650525,5.29,0,-999,0,3.513,79.37,3.629,3.645,4.546,0.585,0,4.084,13.58,5.763,101.7501,3.257,3.259,3.257,100,0,0,0,263.4,145.5,145.5
"2022-02-05 01:42:00",2795811,4.491333,244.7785,8.687761,0.4891199,5.78,0,3.912,239.6649,6.909368,0.6593855,5.19,0,-999,0,3.593,78.9,3.775,3.747,4.387,0.647,0,4.084,13.58,5.825,101.7545,3.256,3.257,3.256,100,0,0,0,263.4,145.6,145.5
"2022-02-05 01:43:00",2795812,4.832,243.3982,6.57916,0.643047,6.01,0,3.538666,240.7461,6.278563,0.5035986,4.44,0,-999,0,3.7,78.81,3.809,3.807,4.804,0.551,0,4.053,13.57,5.95,101.7391,3.256,3.256,3.256,100,0,0,0,263.4,145.5,145.5